Simultaneous Nadir Overpasses (SNOs) Predictions

Prediction of SNOs between GOES-16 and NOAA-19 Satellite Orbit:

Table of predicted SNOs for the next 14.0 days since TLE Epoch: 7/23/2022
Index Date Time (GOES-16) GOES-16 Lat,Lon NOAA-19 Lat,Lon Distance(km) Time Diff (sec)
1 07/24/2022 00:55:53 -0.01, -75.20 -0.23, -76.07 100.29 80
2 07/25/2022 00:46:42 -0.02, -75.20 0.43, -73.18 230.35 80
3 07/27/2022 13:07:06 0.00, -75.22 0.63, -78.02 319.11 80
4 07/28/2022 12:52:35 -0.00, -75.23 -0.04, -75.13 11.69 80
5 07/29/2022 12:40:43 -0.01, -75.24 -0.70, -72.24 342.59 80
6 08/01/2022 01:04:06 0.01, -75.26 -0.40, -77.15 215.92 80
7 08/02/2022 00:49:35 0.01, -75.27 0.28, -74.26 115.83 80
8 08/03/2022 00:37:42 0.02, -75.29 0.90, -71.36 447.64 80
9 08/04/2022 13:12:39 -0.01, -75.32 0.87, -79.09 430.40 80
10 08/05/2022 13:00:47 -0.01, -75.34 0.19, -76.20 98.42 80
